Crosby, ND

1:30 AM CDT on April 28, 2017 (GMT -0500)
Crosby

Weather History for KD50 - March, 2014

Change the Weather History Date:

Saturday, March 8, 2014

  Actual Average (KISN) Record (KISN)
Temperature  
Mean Temperature 24 °F -  
Max Temperature 39 °F 36 °F 54 °F (2015)
Min Temperature 8 °F 13 °F -31 °F (2003)
Degree Days  
Heating Degree Days 42    
Moisture  
Dew Point 21 °F    
Average Humidity 84    
Maximum Humidity 93    
Minimum Humidity 70    
Precipitation  
Precipitation 0.00 in - - ()
Sea Level Pressure  
Sea Level Pressure 29.98 in    
Wind  
Wind Speed 10 mph (SSW)    
Max Wind Speed 24 mph    
Max Gust Speed 26 mph    
Visibility 10 miles    
Events      
Averages and records for this station are not official NWS values.
T = Trace of Precipitation, MM = Missing Value Source: NWS Daily Summary

Daily Weather History Graph

Daily Weather History Graph

Search for Another Location

Airport or City:

Trip Planner

Search our weather history database for the weather conditions in past years. The results will help you decide how hot, cold, wet, or windy it might be!

Date:

Astronomy

Mar. 08, 2014 Rise Set
Actual Time 7:20 AM CST 6:47 PM CST
Civil Twilight 6:49 AM CST 7:19 PM CST
Nautical Twilight 6:12 AM CST 7:55 PM CST
Astronomical Twilight 5:35 AM CST 8:33 PM CST
Moon 11:32 AM CST (3/8) 2:19 AM CST (3/8)
Length of Visible Light 12h 29m
Length of Day
11h 26m
First Quarter, 52% of the Moon is Illuminated
Mar 8
First Quarter
Mar 16
Full
Mar 23
Last Quarter
Mar 30
New
Apr 7
First Quarter

Hourly Weather History & Observations

Time (CST) Temp. Windchill Dew Point Humidity Pressure Visibility Wind Dir Wind Speed Gust Speed Precip Events Conditions
12:35 AM 10.4 °F - 8.6 °F 92% 30.21 in 10.0 mi Calm Calm - N/A   Unknown
12:55 AM 10.4 °F - 8.6 °F 92% 30.21 in 10.0 mi Calm Calm - N/A   Unknown
1:15 AM 14.0 °F 3.9 °F 8.6 °F 79% 30.20 in 10.0 mi South 6.9 mph - N/A   Unknown
1:35 AM 14.0 °F 2.9 °F 8.6 °F 79% 30.19 in 10.0 mi South 8.1 mph - N/A   Unknown
1:55 AM 14.0 °F 2.9 °F 8.6 °F 79% 30.19 in 10.0 mi South 8.1 mph - N/A   Unknown
2:15 AM 14.0 °F 2.9 °F 10.4 °F 86% 30.19 in 10.0 mi South 8.1 mph - N/A   Unknown
2:35 AM 14.0 °F 3.9 °F 10.4 °F 86% 30.19 in 10.0 mi South 6.9 mph - N/A   Unknown
2:55 AM 14.0 °F 2.9 °F 10.4 °F 86% 30.18 in 10.0 mi South 8.1 mph - N/A   Unknown
3:15 AM 14.0 °F 2.9 °F 10.4 °F 86% 30.17 in 10.0 mi South 8.1 mph - N/A   Unknown
3:35 AM 14.0 °F 3.9 °F 10.4 °F 86% 30.17 in 10.0 mi SSW 6.9 mph - N/A   Unknown
3:55 AM 14.0 °F 2.9 °F 10.4 °F 86% 30.16 in 10.0 mi South 8.1 mph - N/A   Unknown
4:15 AM 14.0 °F -0.2 °F 10.4 °F 86% 30.15 in 10.0 mi SSW 12.7 mph - N/A   Unknown
4:35 AM 14.0 °F 0.5 °F 10.4 °F 86% 30.14 in 10.0 mi SSW 11.5 mph - N/A   Unknown
4:55 AM 14.0 °F 1.2 °F 10.4 °F 86% 30.14 in 10.0 mi South 10.4 mph - N/A   Unknown
5:15 AM 14.0 °F 2.9 °F 10.4 °F 86% 30.16 in 10.0 mi SSW 8.1 mph - N/A   Unknown
5:35 AM 12.2 °F -1.0 °F 8.6 °F 85% 30.14 in 10.0 mi South 10.4 mph - N/A   Unknown
5:55 AM 12.2 °F -0.2 °F 8.6 °F 85% 30.14 in 10.0 mi South 9.2 mph - N/A   Unknown
6:15 AM 10.4 °F -2.4 °F 8.6 °F 92% 30.14 in 10.0 mi SSW 9.2 mph - N/A   Unknown
6:35 AM 10.4 °F -1.5 °F 6.8 °F 85% 30.13 in 10.0 mi SSW 8.1 mph - N/A   Unknown
6:55 AM 10.4 °F -2.4 °F 8.6 °F 92% 30.12 in 10.0 mi SSW 9.2 mph - N/A   Unknown
7:15 AM 10.4 °F -1.5 °F 6.8 °F 85% 30.11 in 10.0 mi South 8.1 mph - N/A   Unknown
7:35 AM 8.6 °F -3.7 °F 6.8 °F 92% 30.11 in 10.0 mi SSW 8.1 mph - N/A   Unknown
7:55 AM 8.6 °F -3.7 °F 6.8 °F 92% 30.10 in 10.0 mi SSW 8.1 mph - N/A   Unknown
8:15 AM 8.6 °F -4.7 °F 6.8 °F 92% 30.09 in 10.0 mi SSW 9.2 mph - N/A   Unknown
8:35 AM 12.2 °F -3.1 °F 8.6 °F 85% 30.09 in 10.0 mi SSW 13.8 mph - N/A   Unknown
8:55 AM 12.2 °F -1.8 °F 8.6 °F 85% 30.08 in 10.0 mi SSW 11.5 mph - N/A   Unknown
9:15 AM 12.2 °F 0.7 °F 8.6 °F 85% 30.08 in 10.0 mi SSW 8.1 mph - N/A   Unknown
9:35 AM 15.8 °F 3.4 °F 10.4 °F 79% 30.07 in 10.0 mi SSW 10.4 mph - N/A   Unknown
9:55 AM 17.6 °F 2.7 °F 14.0 °F 86% 30.07 in 10.0 mi SSW 16.1 mph - N/A   Unknown
10:15 AM 19.4 °F 5.0 °F 14.0 °F 80% 30.06 in 10.0 mi SSW 16.1 mph 19.6 mph N/A   Unknown
10:35 AM 21.2 °F 7.3 °F 15.8 °F 80% 30.05 in 10.0 mi SSW 16.1 mph - N/A   Unknown
10:55 AM 23.0 °F 8.7 °F 17.6 °F 80% 30.04 in 10.0 mi SSW 18.4 mph 21.9 mph N/A   Unknown
11:15 AM 24.8 °F 10.0 °F 17.6 °F 74% 30.03 in 10.0 mi SSW 21.9 mph - N/A   Unknown
11:35 AM 24.8 °F 10.7 °F 19.4 °F 80% 30.02 in 10.0 mi SSW 19.6 mph - N/A   Unknown
11:55 AM 28.4 °F 16.2 °F 21.2 °F 74% 30.01 in 10.0 mi SSW 17.3 mph 21.9 mph N/A   Unknown
12:15 PM 30.2 °F 17.8 °F 23.0 °F 75% 30.00 in 10.0 mi SSW 19.6 mph 23.0 mph N/A   Unknown
12:35 PM 32.0 °F 19.2 °F 24.8 °F 75% 29.99 in 10.0 mi SSW 23.0 mph 26.5 mph N/A   Unknown
12:55 PM 32.0 °F 18.9 °F 24.8 °F 75% 29.96 in 10.0 mi SSW 24.2 mph - N/A   Unknown
1:15 PM 35.6 °F 24.5 °F 26.6 °F 70% 29.95 in 10.0 mi SSW 20.7 mph 26.5 mph N/A   Unknown
1:35 PM 35.6 °F 25.2 °F 28.4 °F 75% 29.94 in 10.0 mi SSW 18.4 mph - N/A   Unknown
1:55 PM 35.6 °F 24.5 °F 28.4 °F 75% 29.93 in 10.0 mi SSW 20.7 mph 24.2 mph N/A   Unknown
2:15 PM 37.4 °F 27.5 °F 30.2 °F 75% 29.93 in 10.0 mi SSW 18.4 mph - N/A   Unknown
2:35 PM 37.4 °F 27.8 °F 30.2 °F 75% 29.92 in 10.0 mi SSW 17.3 mph - N/A   Unknown
2:55 PM 37.4 °F 28.5 °F 32.0 °F 81% 29.91 in 10.0 mi SSW 15.0 mph - N/A   Unknown
3:15 PM 39.2 °F 31.6 °F 32.0 °F 75% 29.91 in 10.0 mi South 12.7 mph - N/A   Unknown
3:35 PM 39.2 °F 32.0 °F 32.0 °F 75% 29.90 in 10.0 mi SSW 11.5 mph - N/A   Unknown
3:55 PM 39.2 °F 30.8 °F 32.0 °F 75% 29.89 in 10.0 mi SSW 15.0 mph - N/A   Unknown
4:15 PM 39.2 °F 30.8 °F 32.0 °F 75% 29.88 in 10.0 mi SSW 15.0 mph - N/A   Unknown
4:35 PM 39.2 °F 30.8 °F 32.0 °F 75% 29.87 in 10.0 mi SSW 15.0 mph - N/A   Unknown
4:55 PM 39.2 °F 30.8 °F 32.0 °F 75% 29.85 in 10.0 mi SSW 15.0 mph - N/A   Unknown
5:15 PM 39.2 °F 30.5 °F 32.0 °F 75% 29.84 in 10.0 mi SSW 16.1 mph - N/A   Unknown
5:35 PM 39.2 °F 30.8 °F 33.8 °F 81% 29.83 in 10.0 mi SSW 15.0 mph - N/A   Unknown
5:55 PM 39.2 °F 30.5 °F 32.0 °F 75% 29.82 in 10.0 mi SSW 16.1 mph - N/A   Unknown
6:15 PM 37.4 °F 29.3 °F 33.8 °F 87% 29.82 in 10.0 mi SSW 12.7 mph - N/A   Unknown
6:35 PM 37.4 °F 29.3 °F 33.8 °F 87% 29.81 in 10.0 mi South 12.7 mph - N/A   Unknown
6:55 PM 37.4 °F 29.3 °F 33.8 °F 87% 29.81 in 10.0 mi SSW 12.7 mph - N/A   Unknown
7:15 PM 37.4 °F 28.5 °F 33.8 °F 87% 29.80 in 10.0 mi SSW 15.0 mph - N/A   Unknown
7:35 PM 37.4 °F 30.8 °F 33.8 °F 87% 29.80 in 10.0 mi SSW 9.2 mph - N/A   Unknown
7:55 PM 37.4 °F 30.3 °F 33.8 °F 87% 29.78 in 10.0 mi SSW 10.4 mph - N/A   Unknown
8:15 PM 35.6 °F 28.0 °F 33.8 °F 93% 29.77 in 10.0 mi SSW 10.4 mph - N/A   Unknown
8:35 PM 35.6 °F 26.6 °F 33.8 °F 93% 29.77 in 10.0 mi SSW 13.8 mph - N/A   Unknown
8:55 PM 35.6 °F 27.5 °F 33.8 °F 93% 29.77 in 10.0 mi SSW 11.5 mph - N/A   Unknown
9:15 PM 35.6 °F 26.6 °F 33.8 °F 93% 29.76 in 10.0 mi SSW 13.8 mph - N/A   Unknown
9:35 PM 35.6 °F 25.9 °F 33.8 °F 93% 29.74 in 10.0 mi SW 16.1 mph - N/A   Unknown
9:55 PM 35.6 °F 25.9 °F 33.8 °F 93% 29.73 in 10.0 mi SSW 16.1 mph - N/A   Unknown
10:15 PM 35.6 °F 25.5 °F 33.8 °F 93% 29.72 in 10.0 mi SW 17.3 mph - N/A   Unknown
10:35 PM 35.6 °F 25.9 °F 32.0 °F 87% 29.71 in 7.0 mi SW 16.1 mph - N/A   Unknown
10:55 PM 35.6 °F 25.5 °F 32.0 °F 87% 29.71 in 6.0 mi SW 17.3 mph - N/A   Mist
11:15 PM 37.4 °F 27.8 °F 33.8 °F 87% 29.70 in 10.0 mi SW 17.3 mph - N/A   Unknown
11:35 PM 37.4 °F 26.9 °F 33.8 °F 87% 29.69 in 10.0 mi SW 20.7 mph 26.5 mph N/A   Unknown
11:55 PM 37.4 °F 27.2 °F 33.8 °F 87% 29.69 in 10.0 mi WSW 19.6 mph - N/A   Unknown